Tracking 19219 objects as of 19-Jul-2018
HD Live streaming from Space Station
objects crossing your sky now

VANGUARD DEB

Track VANGUARD DEB now!
10-day predictions


NORAD ID: 1576
Int'l Code: 1958-002C
Perigee: 637.3 km
Apogee: 3,015.8 km
Inclination: 34.2 °
Period: 123.1 minutes
Semi major axis: 8197 km
RCS: 0.0375 m2 (small)
Launch date: March 17, 1958
Source: United States (US)
Launch site: AIR FORCE EASTERN TEST RANGE (AFETR)

Note: This is SATELLITE DEBRIS
aabbcc
Your satellite tracking list
Your tracking list is empty




NASA's NSSDC Master Catalog

Two Line Element Set (TLE):
1 01576U 58002C   18199.75531813 -.00000635  00000-0 -59581-3 0  9992
2 01576  34.2386  74.5800 1450717 293.1513  52.2901 11.69698753479037
Source of the keplerian elements: AFSPC